Theta_e
325 326 326 327 327 327 327 326 327 327 327 327 327 328 328 328 327 327 327 327 326 327 327 327 327 327 328 328 328 328 328 328 328 328 328 327 327 327 327 327 326 325 325 325 324 325 324 324 324 322 321 321 321 319 317 316 313 311 308 302 298 297 297 295 293 290 290 292 292 292 292 291 291 291 290 290 289 288 288 287 287 286 286 286 285
325 325 325 326 326 326 326 326 326 326 327 327 327 328 327 327 327 327 327 327 327 327 327 327 328 327 328 328 327 328 328 327 328 328 327 327 327 327 326 326 325 325 324 324 324 325 324 322 323 322 322 321 319 318 316 313 312 310 306 300 297 296 295 294 293 291 290 290 290 291 291 291 290 290 290 289 288 288 288 287 286 286 286 285 285
324 324 325 325 325 326 326 325 326 326 326 327 327 327 327 327 328 327 327 328 327 327 328 327 328 327 328 328 327 328 327 327 327 327 327 327 326 327 326 325 325 325 325 325 325 325 322 320 322 322 320 318 317 315 314 313 312 310 306 301 298 295 294 293 293 292 290 289 290 290 290 290 290 289 289 289 288 288 287 287 286 286 285 285 285
324 323 324 325 324 325 325 325 325 325 326 326 326 327 327 327 328 328 328 328 327 328 328 328 328 328 327 328 327 327 327 327 327 327 327 327 326 326 326 325 325 326 325 324 322 321 320 320 321 320 317 317 316 314 313 312 309 307 304 301 297 294 292 292 292 292 291 289 289 289 289 289 289 289 288 288 288 288 287 287 286 286 285 285 284
320 322 323 324 324 324 325 325 325 325 325 326 326 326 327 327 327 327 328 328 328 328 328 328 327 327 327 327 327 327 327 327 326 326 326 326 326 326 326 325 324 323 321 319 319 318 317 318 318 318 318 317 315 314 312 309 305 303 302 299 295 293 291 291 291 291 292 291 289 289 289 289 288 288 288 288 287 287 287 287 286 285 285 285 284
313 315 317 320 321 322 324 324 325 326 325 326 326 326 326 326 327 327 327 327 327 327 327 327 327 327 327 327 327 327 327 327 326 326 326 326 325 325 324 323 321 321 321 320 320 320 318 318 317 317 319 317 314 314 312 307 304 302 301 298 295 292 291 291 290 290 291 291 290 289 288 288 288 288 288 287 287 287 287 287 286 285 285 284 284
310 311 312 314 315 317 319 320 322 323 324 324 325 325 325 325 325 326 326 326 326 326 326 326 326 326 327 326 327 327 327 327 326 326 326 325 325 324 322 320 320 322 322 321 321 320 319 319 315 315 317 315 312 314 312 307 305 303 302 298 293 291 290 290 290 289 289 290 289 289 288 288 288 287 288 288 287 287 287 286 286 285 285 284 284
310 310 310 311 312 313 314 316 316 318 318 319 320 320 320 321 322 323 324 324 325 325 325 325 326 326 326 326 326 326 325 325 326 326 326 325 325 323 321 321 322 323 322 321 320 320 318 316 313 313 314 311 311 313 313 310 307 304 301 297 292 290 290 290 289 289 288 288 288 288 288 287 287 287 287 287 286 287 288 286 285 285 285 284 284
309 309 310 310 311 311 312 313 313 315 315 316 316 317 317 319 320 321 322 323 324 324 324 325 325 324 325 325 324 324 323 323 324 325 325 324 323 322 322 322 323 322 320 320 319 317 315 313 312 312 311 309 311 313 311 310 308 305 301 295 290 290 290 289 289 288 287 287 287 287 287 287 287 287 286 287 289 289 288 286 285 285 284 284 284
308 308 309 309 310 310 310 312 313 315 315 315 316 316 317 319 320 321 322 322 323 323 323 323 323 323 323 323 322 322 322 322 323 323 322 321 320 320 321 321 320 319 318 317 316 315 313 312 311 310 309 309 310 310 309 308 306 305 302 296 291 290 290 289 289 288 288 287 287 287 286 286 287 287 288 290 291 289 287 285 284 284 283 283 284
309 309 309 310 310 310 310 312 314 315 315 315 315 315 316 318 319 319 320 320 320 321 322 321 320 320 321 321 320 321 321 321 322 321 320 319 319 319 319 318 317 317 316 315 314 313 311 309 308 307 308 308 307 307 307 306 304 302 300 296 292 290 290 290 289 288 288 287 287 287 286 287 288 289 289 290 290 288 286 285 284 283 282 282 283
310 310 311 311 312 312 312 313 314 313 312 312 312 312 312 313 314 315 315 316 317 318 318 319 319 319 319 319 319 319 319 320 319 319 319 318 318 318 318 316 316 315 314 313 312 310 309 308 307 306 308 308 307 306 306 304 302 299 296 293 290 290 290 291 291 290 289 288 287 287 287 288 289 290 290 290 289 287 286 285 284 283 282 282 282
311 311 311 312 312 313 313 312 312 310 309 308 307 307 307 307 308 310 311 313 314 315 316 316 317 318 318 318 318 317 317 317 317 317 317 317 317 317 316 315 314 314 313 312 311 309 308 306 306 307 309 310 309 308 306 303 298 295 292 290 289 289 289 290 291 291 290 289 288 288 289 289 290 292 293 292 289 287 285 285 284 283 282 282 282
311 311 311 311 312 312 310 310 309 308 307 305 303 303 303 305 306 308 309 310 312 313 314 314 315 315 315 316 316 316 316 315 316 316 316 316 316 315 314 313 313 312 311 310 309 308 307 306 307 309 310 310 308 306 304 300 295 291 289 289 289 289 289 289 289 289 290 290 289 290 291 291 292 295 294 291 288 287 286 286 285 284 283 282 282
310 310 310 310 310 310 308 307 306 305 304 303 302 302 302 303 305 306 308 309 310 311 312 313 313 313 314 314 314 315 315 315 315 315 315 314 313 312 311 311 311 309 308 307 306 306 306 306 307 308 307 306 305 304 302 299 294 289 288 288 288 288 288 288 288 288 288 289 289 289 290 290 291 292 291 288 287 286 286 285 284 284 283 282 281
309 309 309 308 308 308 307 305 304 303 302 302 302 303 303 303 304 305 306 308 309 310 310 311 312 312 312 312 312 312 313 313 314 314 313 312 310 309 309 309 307 306 305 305 305 304 304 304 305 305 305 304 304 303 301 297 292 289 288 288 288 288 288 288 288 288 288 288 287 287 288 288 288 288 287 286 286 285 284 284 283 282 281 280 280
307 307 306 306 306 306 305 303 302 301 301 302 303 303 304 304 304 304 305 307 307 308 308 309 310 310 310 310 310 310 311 311 312 312 311 310 308 308 307 306 305 304 304 303 303 302 302 302 302 302 303 303 302 301 299 295 291 288 288 288 287 288 288 288 287 287 287 287 287 286 286 286 286 286 286 285 285 284 284 283 283 282 281 279 279
306 305 305 305 304 304 303 302 301 301 301 302 303 304 305 306 306 306 306 307 307 308 308 309 309 309 309 309 308 308 309 309 310 310 309 308 307 306 305 304 303 302 302 301 301 300 300 300 300 301 301 301 300 298 297 294 291 289 288 287 287 287 287 287 287 287 287 286 286 286 286 286 286 285 285 284 284 284 283 284 284 283 281 280 279
306 305 305 304 303 303 302 301 301 301 302 302 303 305 305 306 307 307 307 307 308 308 309 309 309 309 309 308 308 308 308 308 308 308 307 306 305 303 302 302 301 301 301 301 300 300 300 300 300 300 300 299 297 295 294 292 290 289 288 287 287 287 287 287 287 287 286 286 286 286 286 286 285 285 284 284 283 283 283 283 283 282 282 281 280
306 305 304 302 302 301 301 300 300 301 301 302 304 305 306 307 307 308 308 308 308 308 308 308 308 308 307 307 307 308 308 307 306 305 304 304 304 303 302 302 302 302 301 300 299 299 300 300 300 300 298 296 295 293 291 290 289 288 287 287 287 287 287 287 286 286 286 286 286 286 285 285 285 284 284 283 283 283 283 282 282 282 282 282 280
305 303 302 301 301 300 300 300 300 300 301 303 304 305 306 307 307 308 308 307 307 306 306 306 306 306 305 305 305 305 304 304 303 303 302 302 302 302 302 301 301 300 299 298 298 299 299 300 300 299 297 296 294 292 289 288 287 287 287 287 286 286 286 286 286 286 285 285 285 285 285 284 284 283 283 283 283 283 283 283 283 283 283 282 281
303 301 300 300 300 300 300 300 300 301 302 303 305 306 306 307 307 307 307 307 306 305 305 304 304 303 302 302 301 300 300 300 300 300 300 300 300 299 299 299 298 298 297 297 298 298 298 298 297 296 294 293 292 290 288 287 286 286 286 287 286 286 286 285 285 285 285 284 284 284 284 283 283 283 283 283 283 282 282 282 283 283 283 282 281
302 300 300 300 299 300 300 300 300 301 302 303 304 305 305 305 305 305 305 305 303 302 301 300 299 299 297 297 297 297 298 298 299 299 299 298 299 298 297 297 296 296 296 296 297 296 296 294 294 293 291 290 289 288 287 286 286 286 286 286 286 286 285 285 284 284 284 284 283 283 283 283 283 283 283 283 283 283 282 283 283 282 282 282 281
300 299 299 299 299 300 300 301 301 301 302 303 303 303 303 303 302 302 302 301 300 298 297 296 295 295 294 294 295 296 297 297 297 297 297 297 298 297 296 296 295 295 295 295 295 294 293 292 291 290 288 288 287 286 286 285 285 285 285 285 285 285 285 284 284 283 283 283 283 283 283 283 283 283 283 283 283 283 283 282 282 282 281 281 280
298 298 298 298 299 300 300 301 301 301 302 302 301 301 300 299 298 297 297 297 297 295 294 294 294 293 293 294 295 295 295 296 296 297 297 297 297 296 295 295 294 294 294 293 292 292 291 289 288 287 286 286 285 285 285 285 284 284 284 284 285 285 284 284 283 283 283 283 283 283 283 283 283 283 283 283 282 282 282 282 282 281 281 280 279
297 297 297 298 299 299 300 300 300 301 301 301 300 300 299 298 297 295 294 294 294 294 293 292 293 293 293 294 295 295 294 295 295 296 296 296 295 294 293 293 292 292 291 291 290 290 289 288 287 286 285 285 285 284 284 284 284 284 284 284 285 285 285 284 284 283 283 283 283 283 283 283 283 283 283 282 281 281 281 280 280 280 280 279 278
296 296 297 297 298 298 299 299 298 299 299 298 298 299 299 298 297 295 294 293 293 292 292 292 293 293 294 294 294 294 294 294 294 294 295 294 293 293 292 291 291 290 290 290 289 288 288 287 286 285 285 284 284 284 283 283 283 283 284 284 285 285 285 285 285 284 284 284 283 283 283 282 282 282 281 281 280 280 280 280 279 279 279 278 277
296 295 296 296 296 297 297 297 296 296 295 296 296 296 296 296 296 296 295 296 295 295 294 294 295 296 296 295 294 293 292 293 293 293 293 293 293 292 291 290 289 289 289 288 288 287 287 286 285 285 285 284 284 284 283 283 283 283 283 283 284 284 285 285 285 285 285 284 284 283 283 282 282 281 281 280 280 280 279 279 279 278 277 277 276
295 295 295 295 295 295 295 295 295 294 293 294 294 294 294 295 297 297 296 297 298 298 298 298 298 298 297 297 296 294 293 292 293 293 292 292 291 290 289 289 288 288 288 287 287 287 286 286 285 285 284 284 284 283 283 283 283 282 282 283 283 284 284 284 284 284 284 284 284 283 283 282 281 281 280 280 279 279 279 278 278 277 276 276 275
294 294 294 294 294 294 294 294 294 293 293 292 291 291 292 294 296 296 296 295 296 297 297 297 297 297 296 295 294 294 293 292 291 290 290 289 288 287 287 287 287 287 287 287 286 286 286 285 285 284 284 284 283 283 283 283 283 282 282 282 283 283 283 283 284 284 284 284 283 283 282 282 281 280 280 279 279 279 278 278 277 277 276 275 275
293 293 293 293 293 293 293 293 292 292 292 292 291 290 289 289 291 293 293 294 294 295 295 295 294 294 294 292 291 291 290 289 288 288 287 287 286 286 285 285 285 286 286 286 286 286 285 285 284 284 284 284 283 283 283 283 282 282 282 282 282 282 282 282 283 283 283 282 282 282 282 281 281 280 280 279 279 278 277 277 276 276 275 275 275
292 292 292 292 292 292 292 292 291 291 291 291 291 290 289 287 287 288 289 291 292 293 292 291 291 290 290 289 289 288 287 287 286 286 286 286 285 285 284 284 284 285 285 285 285 285 285 285 284 284 284 283 283 283 283 282 282 282 282 282 281 281 281 281 281 281 281 281 281 281 280 280 280 279 279 278 278 277 276 276 276 275 275 274 274
292 291 291 291 291 291 291 291 291 291 290 290 290 290 289 287 285 284 285 287 288 288 288 287 287 287 287 287 287 286 286 286 286 286 285 285 284 284 284 284 284 284 284 284 284 284 284 284 284 284 283 283 283 283 282 282 282 282 281 281 281 281 281 281 280 280 280 280 280 279 279 279 279 278 278 277 277 276 276 275 275 275 274 274 273
291 290 290 290 290 290 290 290 290 290 290 290 289 289 290 289 286 284 283 283 284 284 285 285 285 285 286 285 285 286 285 285 285 285 285 284 284 283 283 283 284 284 284 284 284 283 284 284 284 283 283 282 282 282 282 282 282 281 281 281 281 281 281 280 280 280 280 279 279 279 279 278 278 278 277 277 276 276 275 275 275 274 274 273 273
290 289 289 290 290 289 290 290 290 290 289 289 290 290 289 288 286 285 283 283 282 282 283 283 283 284 284 283 283 284 284 284 284 283 283 283 283 283 282 283 284 285 285 284 284 284 283 283 283 282 281 281 281 281 281 281 281 281 281 281 281 281 280 280 280 280 279 279 279 279 278 278 278 277 277 276 276 275 275 275 274 274 273 273 273
289 288 288 289 289 289 289 290 290 290 289 289 289 289 287 286 285 284 283 283 282 282 281 281 282 282 282 282 282 282 282 282 282 282 282 282 282 282 282 282 283 284 284 284 283 283 282 281 281 281 280 280 280 280 280 280 280 280 280 280 280 280 280 280 280 279 279 279 279 279 278 278 278 277 277 276 275 275 275 274 274 273 273 273 273
287 287 287 288 288 288 288 288 289 289 288 288 287 286 285 284 283 283 283 282 282 281 281 280 281 281 281 281 281 281 281 281 282 282 282 282 282 283 283 283 282 282 282 282 282 281 281 281 280 280 280 279 279 279 279 279 279 279 279 279 279 279 279 279 279 279 279 279 278 278 278 278 278 277 276 275 275 275 274 274 273 273 273 273 273
286 286 286 286 287 287 286 286 286 286 285 285 284 284 283 282 282 282 282 281 281 280 280 280 280 281 281 280 280 280 280 281 281 281 281 282 282 282 282 282 282 281 281 280 280 279 279 278 278 278 278 277 277 277 277 277 277 277 277 277 277 277 277 277 277 277 278 278 277 277 277 277 277 277 276 275 275 274 274 274 273 273 272 272 272
284 284 285 285 285 285 284 284 283 284 283 283 283 283 282 282 282 281 281 280 280 280 279 279 279 279 279 279 279 280 280 280 280 280 280 280 280 280 280 280 280 279 279 278 278 277 277 276 276 276 276 276 276 276 276 276 276 276 275 275 275 275 275 275 275 276 276 276 276 276 276 276 276 276 275 275 274 274 274 273 273 273 272 272 272
282 282 283 284 284 283 283 283 283 283 283 282 282 282 282 281 281 281 280 280 279 279 278 278 278 278 278 278 278 279 279 279 278 278 278 278 278 278 278 278 278 277 277 277 276 276 275 275 275 275 275 274 274 274 274 274 274 274 274 273 273 273 273 273 273 273 274 274 274 274 274 274 275 275 274 274 274 274 273 273 273 272 272 271 271
282 281 281 282 283 283 282 282 282 282 282 282 282 281 281 281 280 280 280 279 278 278 277 277 276 276 276 277 278 278 279 279 278 277 278 277 277 277 277 277 276 276 276 275 275 275 274 274 274 274 274 273 273 273 273 273 272 272 272 272 271 271 271 270 271 271 272 272 272 273 273 273 273 273 273 273 273 273 273 272 272 272 271 271 271
281 281 281 281 281 282 281 280 280 281 281 281 281 280 280 280 279 279 279 278 277 276 275 275 274 274 275 276 276 277 278 278 277 277 277 277 276 276 276 276 275 275 275 274 274 274 274 274 273 273 273 273 273 272 272 272 271 271 270 270 269 269 269 269 269 269 270 270 271 271 271 271 272 272 272 272 272 272 271 271 271 271 270 270 270
281 281 280 280 280 281 280 279 279 279 279 279 279 279 279 279 278 278 277 276 276 275 275 274 273 273 274 274 275 275 276 276 276 276 276 275 275 275 274 274 274 274 274 273 273 273 273 273 272 272 272 272 271 271 271 270 269 269 269 268 268 268 267 267 267 267 267 268 269 269 269 270 270 270 270 271 271 271 271 270 270 270 270 270 269
281 280 279 279 279 279 278 278 278 278 278 278 278 278 278 278 277 277 276 275 275 274 274 274 273 273 274 274 274 274 275 275 275 275 275 274 274 274 274 273 273 273 272 272 271 271 271 271 271 271 271 270 270 270 269 269 268 268 268 267 267 267 267 267 266 266 266 266 267 267 267 268 268 269 269 269 270 270 270 270 269 269 269 269 269
279 279 278 278 278 277 277 277 278 277 277 277 276 276 276 276 276 275 275 275 274 274 273 273 273 273 273 273 274 274 274 274 274 274 274 274 273 273 273 273 272 271 271 271 270 270 270 270 270 270 270 270 269 269 269 268 268 267 267 267 266 266 266 266 266 266 266 266 266 265 265 266 266 267 268 268 269 269 269 269 269 269 268 268 268
279 278 278 277 277 276 276 276 276 276 276 275 275 274 274 274 274 274 274 273 273 273 273 272 273 273 273 273 274 274 274 274 274 274 273 273 273 272 272 271 271 270 270 269 269 269 269 269 269 269 269 269 269 269 268 268 268 267 267 267 266 266 266 266 266 266 265 265 265 265 264 264 265 266 266 267 268 268 268 268 268 268 268 268 268
279 278 278 277 276 276 275 275 275 275 274 274 274 274 273 273 273 273 273 273 273 272 272 272 273 273 273 274 274 274 274 274 273 273 273 272 272 271 270 270 269 269 268 268 268 268 268 268 268 268 268 268 268 268 268 268 267 267 267 267 267 267 267 266 266 265 265 265 264 264 264 264 264 264 265 266 266 267 267 267 267 267 267 267 267
278 277 277 277 276 275 274 274 274 274 274 274 274 273 273 273 273 273 272 272 272 273 273 273 273 273 274 273 273 273 273 273 272 272 271 271 270 269 269 268 268 268 268 268 268 267 267 267 267 267 267 267 267 267 267 267 267 267 267 267 267 267 266 266 266 266 265 265 264 264 264 263 263 263 264 265 265 266 266 266 267 267 267 267 267
277 276 276 276 275 275 274 274 274 274 274 273 273 273 273 273 273 273 273 273 273 273 274 274 273 273 273 273 272 272 272 271 271 270 269 269 268 268 267 267 267 267 267 267 267 267 267 267 267 267 267 267 267 267 267 267 267 267 267 267 266 267 267 266 266 265 265 264 264 264 263 263 263 263 263 264 264 265 265 265 266 266 266 266 266
275 275 275 275 274 274 274 274 274 274 273 273 273 273 273 273 274 274 274 274 273 273 273 273 272 272 272 271 271 270 270 269 269 268 268 268 267 267 267 267 266 266 266 267 267 267 267 266 266 266 266 266 266 266 266 266 266 267 267 266 267 267 267 266 266 265 265 264 263 263 263 262 262 262 263 263 263 264 264 265 265 265 265 266 266
274 274 274 274 274 273 273 273 273 273 273 273 273 273 273 273 273 273 273 272 272 271 271 271 271 270 270 270 269 269 269 268 268 268 267 267 267 266 266 266 266 266 266 266 266 266 266 266 266 266 266 266 266 266 266 266 266 266 266 266 266 267 266 266 265 265 265 264 263 262 262 262 262 262 262 262 263 263 263 264 264 265 265 265 265
Wind_Speed
34 35 36 36 37 37 38 38 38 38 37 36 36 38 39 38 38 37 35 35 36 35 35 35 34 34 34 34 35 35 36 37 37 37 38 37 38 37 37 37 38 39 38 39 40 39 39 40 39 36 31 29 29 28 28 29 27 26 26 26 29 32 30 25 15 9 11 16 18 19 19 18 18 17 16 14 15 15 15 15 15 15 14 14 14
33 34 34 34 36 38 37 36 35 35 35 35 36 37 38 37 37 36 35 36 35 35 35 35 35 35 35 35 36 36 36 36 36 36 37 37 37 36 36 37 37 37 35 36 38 38 40 41 38 34 33 31 29 28 28 28 27 27 27 26 29 31 29 25 19 13 13 15 18 19 19 19 18 17 15 14 15 15 15 15 15 16 15 14 14
31 31 32 33 35 36 35 34 33 33 34 35 36 37 37 36 35 35 36 36 36 36 36 35 35 36 36 36 36 36 36 36 35 36 36 36 35 35 36 36 36 35 35 38 40 41 40 38 37 36 33 29 27 28 28 28 29 29 28 28 30 31 28 25 20 16 17 17 19 21 20 19 18 16 15 14 15 15 16 15 15 16 16 15 14
28 29 30 32 32 33 33 33 33 32 33 34 35 35 35 35 35 35 36 35 35 36 36 35 35 35 35 36 35 35 35 35 34 35 35 35 35 35 36 37 37 38 38 39 39 38 39 38 38 36 30 27 28 29 29 30 31 30 29 29 30 30 28 24 21 19 19 19 20 21 21 19 17 16 15 15 16 16 16 16 16 17 17 16 15
25 27 28 29 30 31 31 31 32 32 33 34 34 34 34 33 34 34 34 34 35 35 34 34 34 34 34 34 34 34 34 34 34 34 34 35 35 36 37 37 38 37 34 31 31 33 35 36 36 33 29 30 32 32 31 32 30 29 29 29 29 29 26 24 21 19 19 21 22 21 20 18 17 16 16 16 16 17 18 18 18 17 17 17 16
22 24 26 27 28 29 30 30 31 32 32 33 33 33 32 31 32 32 32 32 32 32 32 31 32 32 32 32 33 32 32 33 34 33 34 34 34 36 36 34 31 30 28 27 29 32 32 32 33 32 32 35 35 33 32 31 29 29 30 30 30 29 26 25 22 19 19 21 22 22 21 20 18 17 17 17 17 18 19 20 19 18 17 17 17
21 22 23 24 26 27 28 29 29 29 30 30 30 30 29 29 29 29 28 28 28 29 29 29 29 30 30 31 31 30 31 33 33 33 33 32 32 33 33 29 25 26 27 27 28 30 32 33 34 33 35 38 36 32 31 30 30 31 31 31 31 30 27 26 24 22 21 22 22 22 22 22 20 18 17 18 18 19 21 21 21 19 17 18 17
22 21 22 23 24 25 25 25 26 26 25 25 25 24 24 24 24 23 23 23 23 24 24 24 25 26 26 27 28 29 30 32 32 31 31 30 31 31 29 26 25 26 27 27 28 29 31 32 31 32 35 35 31 29 29 29 29 30 31 32 32 31 29 28 26 24 23 23 22 22 22 21 20 19 18 18 19 22 23 23 22 20 17 18 18
22 22 23 24 24 23 22 22 21 21 20 20 19 19 19 18 18 17 17 18 18 19 20 21 22 23 23 25 26 27 27 27 28 29 29 29 29 28 26 25 25 26 27 28 28 29 29 29 29 31 32 28 27 29 28 26 27 29 31 33 33 31 30 28 26 24 23 22 21 20 20 20 21 21 21 22 23 24 22 21 22 20 18 18 18
20 22 23 23 22 21 20 19 19 18 18 18 17 17 17 17 17 16 16 16 16 16 17 18 19 21 21 22 23 22 21 21 23 24 25 24 23 22 22 23 24 25 26 26 27 28 27 27 27 28 26 25 27 28 26 25 27 28 31 34 35 34 32 29 27 26 25 24 23 23 21 21 24 26 25 25 25 24 22 21 20 19 17 17 16
19 20 20 19 18 18 18 18 17 17 17 16 16 17 17 17 17 17 16 16 16 16 16 16 15 15 15 16 16 16 15 16 17 19 20 19 20 20 21 21 22 23 24 24 25 26 25 25 25 24 24 25 26 25 24 25 27 28 32 35 37 37 35 32 30 30 29 28 27 27 26 25 27 28 27 26 25 24 24 22 20 18 16 15 12
19 19 18 17 16 16 16 16 16 16 15 15 15 16 16 16 17 18 18 17 17 17 17 16 16 16 15 15 15 15 14 14 15 16 17 17 18 20 21 21 21 21 22 23 23 24 23 23 23 22 23 25 25 23 24 26 27 30 33 35 37 38 37 36 34 33 33 31 28 29 29 28 28 28 27 26 26 25 23 22 21 20 18 17 13
21 20 19 18 17 16 15 16 16 15 15 15 15 14 14 14 14 15 16 16 16 15 15 16 16 16 16 15 16 16 15 15 14 14 15 16 16 16 17 18 18 19 20 21 22 23 22 22 22 22 24 25 25 25 26 28 29 32 34 35 36 37 37 37 35 34 34 34 32 31 31 29 28 27 26 26 26 25 24 24 24 23 21 20 17
23 22 20 19 18 17 16 17 16 15 15 14 13 12 13 13 12 12 13 13 13 13 13 14 14 14 14 14 13 13 13 12 12 12 13 13 13 14 14 15 16 18 20 20 21 21 22 22 22 23 24 26 27 26 26 27 29 32 34 35 35 35 36 36 34 31 31 31 31 31 30 29 28 25 24 25 25 24 24 24 23 22 21 19 18
23 23 21 20 19 19 18 18 17 15 14 12 10 9 10 13 14 13 12 12 12 12 12 12 12 11 11 11 10 9 9 9 9 10 10 11 12 12 13 13 15 17 18 18 19 20 21 21 22 23 24 25 24 23 23 25 29 31 32 33 33 33 34 34 32 30 29 28 29 29 28 28 27 24 22 21 21 21 21 20 18 17 17 16 17
23 23 22 21 21 21 20 18 16 14 13 11 10 9 9 11 14 14 13 12 12 11 11 10 10 10 9 9 9 9 9 9 8 8 9 9 10 10 11 13 15 16 16 16 17 18 19 20 21 21 22 22 22 21 22 25 29 30 31 31 31 31 32 32 31 31 29 28 28 28 27 25 23 22 20 18 18 19 19 17 15 14 14 15 18
23 23 23 22 22 22 20 18 16 14 13 12 12 12 11 10 12 14 14 13 12 12 11 11 11 12 12 12 12 12 12 11 10 10 9 8 9 10 10 12 13 14 14 15 16 17 18 19 19 19 20 21 21 21 22 25 28 30 30 30 30 31 32 31 31 31 31 30 29 28 26 23 21 20 20 18 18 19 20 20 19 17 16 14 14
24 24 24 24 23 22 20 19 18 17 17 15 15 14 13 13 12 12 13 13 13 13 13 13 13 12 12 12 12 12 13 12 11 10 9 8 9 9 9 11 13 14 14 14 15 16 17 17 17 18 19 20 20 20 21 24 28 30 30 30 30 31 33 32 31 32 31 30 30 28 26 25 23 21 21 21 20 21 22 23 22 20 18 17 14
27 26 26 25 23 22 21 20 20 20 20 19 18 17 16 15 14 12 12 13 13 14 14 13 13 12 11 11 11 11 11 10 10 10 9 9 9 8 9 11 12 12 13 13 14 15 16 16 16 17 18 19 19 19 20 23 27 30 30 30 30 33 34 33 32 32 31 30 30 29 27 26 24 23 23 22 22 23 23 23 23 21 20 20 17
28 27 25 23 23 23 22 21 22 22 22 21 21 20 18 17 16 14 14 14 14 14 14 14 13 12 11 11 10 10 10 9 9 9 9 9 9 9 10 11 11 12 12 13 13 14 14 14 15 16 17 17 18 19 20 22 25 28 29 30 31 33 32 31 30 31 30 30 29 28 26 25 24 24 24 23 23 24 24 24 25 23 20 20 19
26 25 23 23 22 22 22 22 22 23 23 22 22 22 20 19 18 17 16 16 15 15 14 14 13 12 11 10 10 9 9 9 9 8 8 8 8 9 10 11 11 12 12 12 12 13 13 13 14 14 15 16 17 18 20 21 23 25 28 30 31 30 27 25 25 26 26 27 26 25 24 23 23 24 24 24 25 25 25 25 25 23 22 22 21
25 24 23 23 23 23 23 23 23 23 24 24 24 24 22 21 20 19 18 18 17 16 15 14 13 12 11 10 9 9 8 8 8 8 8 8 8 9 10 10 10 11 11 11 12 11 11 12 12 12 13 14 16 17 19 20 22 24 27 28 28 27 25 22 21 20 21 22 23 23 23 23 24 24 25 26 27 27 26 26 25 24 25 25 24
24 24 24 23 24 24 24 24 24 25 26 25 25 24 23 22 22 21 20 19 18 17 15 14 13 12 11 9 8 7 7 7 7 7 7 7 7 7 8 9 9 10 10 10 10 10 10 10 10 10 11 12 14 16 17 19 21 22 24 25 25 25 23 21 19 18 18 19 20 22 23 25 26 27 28 29 29 29 28 27 27 27 27 26 25
24 24 25 25 25 26 25 25 25 26 26 25 24 23 23 22 21 20 19 19 18 16 15 14 12 12 10 9 7 7 6 6 6 6 6 6 6 7 7 8 8 9 9 9 9 9 9 9 9 9 9 10 12 13 15 17 18 20 20 21 22 23 22 21 20 18 17 18 20 22 25 26 28 29 29 30 29 29 29 28 28 29 29 28 27
25 26 26 26 27 27 27 26 26 26 25 24 23 22 22 21 19 18 17 17 16 15 14 13 12 11 11 10 8 7 6 6 6 6 6 6 6 7 7 7 7 7 7 7 7 7 7 7 7 7 8 8 9 10 12 14 15 16 17 17 18 20 21 21 20 19 19 21 22 24 26 27 27 28 28 28 27 28 28 28 29 29 28 27 27
27 27 26 27 27 28 28 27 25 25 24 23 21 21 21 21 19 17 16 15 14 14 13 13 11 11 10 9 8 7 7 7 6 6 6 6 6 7 7 7 6 6 6 6 6 6 6 6 6 6 6 6 6 7 8 10 11 12 14 14 16 18 19 20 21 21 22 23 24 25 27 26 25 26 26 26 26 26 26 26 27 27 27 27 28
27 26 26 27 27 28 28 27 25 24 23 22 20 20 20 21 19 18 17 16 14 13 13 13 12 11 10 9 8 8 7 7 7 7 7 6 6 6 6 7 6 6 6 6 6 6 5 5 5 5 5 5 5 6 6 7 9 10 12 14 16 18 19 20 21 22 23 24 25 26 26 25 25 25 25 25 25 25 24 24 25 25 26 25 25
26 26 26 27 27 28 28 27 25 24 22 21 20 20 20 20 20 19 18 17 16 15 15 14 13 12 12 11 10 10 9 8 7 7 7 7 7 7 7 7 7 6 5 5 5 5 5 5 5 5 5 5 5 6 6 7 8 10 11 13 15 17 19 19 20 21 23 23 24 24 24 24 24 24 23 23 24 23 23 23 24 24 23 22 23
24 24 25 26 26 26 26 25 25 24 22 20 19 18 19 19 19 18 17 16 14 13 13 13 13 12 11 11 11 11 10 9 8 8 8 8 7 7 7 6 6 5 4 5 5 5 5 5 5 5 5 5 6 6 7 7 8 10 11 12 14 16 17 19 21 22 23 23 24 24 24 24 24 23 23 23 24 24 23 23 23 23 22 22 24
24 24 25 25 25 25 25 24 24 24 23 22 19 16 15 16 16 15 15 14 12 10 10 11 11 11 11 11 11 10 11 10 9 9 9 9 8 8 8 7 6 6 5 5 5 5 5 5 5 5 5 6 6 7 7 8 9 10 11 12 13 14 16 18 20 22 22 23 23 24 24 24 24 23 23 24 24 24 23 23 22 22 22 23 25
24 23 24 25 25 26 26 25 25 25 25 24 22 20 18 15 13 12 13 13 12 11 10 10 11 12 12 12 11 10 10 10 10 10 10 10 9 9 8 8 8 7 6 6 5 5 5 5 5 5 5 6 7 7 8 9 10 11 11 12 13 14 16 17 19 20 22 22 23 23 24 24 24 24 23 24 24 23 22 22 22 23 24 25 25
23 23 24 25 26 27 26 26 26 26 26 25 25 24 23 20 17 14 13 12 12 12 12 12 12 12 12 12 12 11 11 10 10 10 11 11 10 10 9 8 8 7 7 6 5 4 4 4 4 4 5 6 6 7 8 9 10 10 11 12 13 14 15 16 17 18 19 21 22 23 24 24 24 24 24 23 23 22 21 21 22 23 25 25 25
24 24 25 26 27 27 27 27 27 27 27 27 26 26 25 23 20 18 15 13 13 12 12 12 12 12 12 11 11 11 11 11 10 10 11 11 11 10 10 9 8 7 7 6 5 4 3 3 3 4 5 5 6 7 8 9 10 10 11 12 13 14 15 15 16 17 18 19 20 21 22 23 23 24 24 23 22 22 21 22 22 23 23 23 24
24 25 27 28 28 27 27 28 27 27 27 27 26 26 25 24 24 23 21 18 15 14 13 12 11 10 11 10 10 10 10 10 10 10 11 11 11 11 11 10 8 6 6 5 4 3 3 3 3 4 5 6 6 8 9 10 11 11 12 13 14 15 15 16 16 18 18 19 20 20 21 22 22 23 24 23 23 22 23 23 23 23 23 23 24
24 25 26 27 27 27 27 28 28 27 27 27 27 26 25 25 26 25 23 21 20 18 16 14 12 11 11 11 10 9 9 9 10 10 11 11 11 11 11 11 10 9 7 6 5 4 4 4 5 5 6 6 7 8 9 10 11 12 13 14 15 15 16 16 17 18 18 19 20 21 21 22 22 23 24 24 23 22 23 24 24 24 24 24 24
24 25 26 27 27 27 27 28 28 28 28 27 27 26 26 26 26 24 23 22 22 21 19 17 15 13 12 12 11 10 10 10 11 11 11 11 11 11 11 11 11 10 8 6 5 4 4 4 4 5 5 5 6 7 8 9 11 11 12 14 15 15 16 17 18 18 19 20 21 22 22 23 23 23 24 24 24 23 25 25 25 24 24 24 24
25 26 26 27 27 27 27 27 27 27 26 26 25 25 25 24 24 23 23 22 22 21 20 18 16 14 13 12 12 11 11 11 11 11 11 11 10 9 9 9 9 9 7 5 4 4 4 4 4 4 5 6 6 7 8 9 10 11 12 13 14 15 16 17 17 18 20 21 22 23 23 23 24 24 24 24 24 24 24 25 25 24 25 24 23
26 27 28 27 27 27 26 25 25 25 25 24 24 24 24 24 23 23 23 22 21 21 19 17 16 15 14 13 13 13 12 12 12 11 11 10 9 8 8 8 7 7 6 5 5 5 5 4 4 4 4 5 6 6 7 8 9 10 11 12 13 14 15 16 17 18 19 21 21 22 23 23 24 24 24 24 25 25 24 25 24 24 24 23 22
26 26 27 27 27 27 26 26 25 25 25 25 24 25 25 25 24 23 23 22 21 20 19 18 16 15 14 13 13 13 13 13 12 12 11 10 9 8 8 7 6 5 5 4 3 4 4 4 4 4 4 5 5 6 7 9 10 11 12 13 14 15 15 16 17 17 18 19 20 20 21 22 23 23 24 24 25 26 25 25 24 23 23 23 23
25 25 25 26 26 26 26 26 25 25 25 25 25 25 25 25 24 24 23 23 22 21 19 18 16 14 12 13 12 13 14 14 13 11 11 10 9 8 7 6 6 5 4 4 3 4 4 4 5 6 6 7 8 8 9 11 12 13 14 15 15 16 16 16 17 17 18 19 19 20 21 22 22 23 24 25 25 26 26 25 25 24 23 24 23
26 25 25 25 26 26 26 25 24 24 24 24 24 24 24 24 24 24 23 23 22 21 19 17 15 13 11 11 11 11 12 13 12 10 10 9 7 7 6 5 5 4 4 4 5 5 6 6 7 8 8 8 9 10 11 12 13 14 15 15 15 16 16 16 16 16 17 18 19 19 20 21 21 22 24 24 24 25 25 25 24 24 24 24 23
27 26 25 25 26 26 25 24 23 23 23 23 22 22 23 23 23 23 23 22 22 21 19 17 14 12 10 10 10 9 10 10 10 9 8 7 6 5 5 4 4 4 5 6 7 8 8 8 9 9 9 10 10 11 11 12 13 13 14 14 15 16 16 16 16 16 16 17 18 19 19 20 20 21 23 23 23 23 24 24 24 23 23 23 23
28 27 26 25 25 25 25 24 23 23 22 22 21 20 21 21 21 20 20 20 19 18 18 16 14 12 10 8 8 7 8 8 7 7 6 5 4 4 4 4 5 5 6 8 9 9 10 9 9 10 10 10 10 11 11 12 12 13 14 14 15 15 16 16 16 16 15 16 17 18 18 19 20 21 22 22 22 23 23 23 23 22 22 22 22
28 27 26 24 24 24 23 23 23 22 22 21 21 20 20 20 19 19 19 19 17 16 15 14 13 11 9 8 7 7 6 6 5 4 4 3 3 3 4 5 6 7 8 9 10 10 10 10 10 10 10 10 10 11 11 11 12 13 13 14 15 16 16 17 17 17 17 18 19 20 20 19 20 20 21 21 21 22 22 22 22 22 22 21 20
28 27 26 25 24 23 23 22 22 22 22 21 21 20 19 19 19 18 17 17 16 14 13 12 11 10 9 8 7 5 4 4 3 2 2 2 3 5 6 7 8 9 10 10 10 10 10 10 10 9 9 9 9 10 10 11 11 12 12 13 15 16 16 17 17 18 18 19 21 21 21 20 20 20 20 20 20 21 21 21 21 21 21 20 19
27 27 26 26 25 24 23 23 22 22 22 22 21 20 19 18 17 16 15 14 14 12 11 10 8 7 6 5 4 3 2 1 2 2 3 4 5 6 8 9 9 10 10 10 10 10 9 9 9 9 9 9 9 9 10 10 11 11 12 12 14 15 15 16 16 16 17 17 18 19 20 19 19 19 19 20 20 20 20 21 20 20 20 19 19
25 26 26 26 26 24 23 22 21 21 20 20 20 19 18 16 15 14 12 11 10 9 8 6 5 4 2 1 1 2 2 3 4 5 6 6 7 8 9 10 10 11 10 10 9 9 9 8 8 9 9 9 9 9 9 10 10 11 11 12 13 14 14 14 15 15 16 15 16 17 18 18 19 19 18 18 19 19 19 20 20 19 20 19 19
24 25 24 24 24 24 22 21 20 20 19 18 17 16 15 13 12 11 9 8 7 6 4 3 2 2 3 3 4 5 5 6 6 7 7 8 8 9 10 10 11 11 10 9 9 9 9 8 8 9 9 9 9 9 9 9 10 10 11 11 12 13 13 13 14 14 14 14 15 16 16 17 18 18 18 18 17 17 18 18 18 18 18 18 18
23 23 23 22 22 21 20 20 19 17 17 15 14 13 12 10 8 7 6 4 3 3 2 3 4 4 5 6 6 7 7 7 8 8 8 9 9 10 10 11 11 10 10 10 9 9 9 9 8 8 9 9 9 10 10 10 10 11 11 11 12 12 12 12 12 13 14 15 15 15 16 16 17 18 18 17 17 17 17 17 17 17 17 17 17
21 21 21 20 20 19 18 17 16 14 13 12 10 9 8 6 5 4 3 3 3 4 4 5 6 6 7 7 8 8 9 9 9 9 10 10 10 10 11 11 11 11 11 10 10 9 9 9 9 9 9 9 10 10 11 11 12 12 12 12 12 12 12 12 13 13 13 14 14 14 15 16 16 17 17 17 16 16 16 16 16 17 17 17 16
19 18 18 17 16 15 14 13 12 11 9 8 7 6 5 3 3 3 3 4 5 5 6 7 8 8 9 9 9 10 10 10 10 10 10 10 11 11 11 11 12 12 11 11 10 10 9 9 9 10 10 10 11 11 11 12 12 13 13 12 12 12 13 13 13 13 13 13 13 14 14 15 16 16 17 16 15 15 15 15 15 16 16 16 16
Wind_Direction
227 227 227 227 229 230 232 233 233 234 234 234 234 236 238 238 239 241 242 244 245 246 247 248 248 249 249 250 250 249 248 248 247 246 244 244 243 243 244 244 243 243 243 243 241 241 242 240 241 242 238 239 246 249 248 242 237 234 232 231 228 225 219 210 194 171 180 196 204 204 204 209 214 223 232 246 261 271 276 279 281 285 288 290 293
229 229 229 229 230 232 233 234 234 235 235 235 235 237 238 239 240 241 242 245 246 246 248 249 250 251 250 250 250 249 249 247 247 245 243 243 244 244 244 243 241 242 243 243 243 244 244 238 237 238 235 237 244 247 244 238 234 231 228 226 225 222 216 207 194 174 171 182 190 194 198 203 212 222 232 245 259 268 273 276 279 283 285 286 289
231 231 231 231 232 233 234 235 235 236 236 236 237 238 239 241 241 242 243 246 247 247 249 249 249 250 249 249 249 248 249 247 246 245 244 243 244 246 247 244 242 244 247 249 248 246 242 236 234 234 231 233 239 241 240 237 234 231 227 224 223 219 213 209 201 184 170 174 185 190 193 200 210 221 233 245 256 263 268 272 276 279 281 284 286
231 231 231 233 234 234 235 236 235 236 237 238 239 241 242 243 243 244 245 247 248 248 249 248 248 248 247 247 248 247 248 248 247 246 246 246 246 247 248 247 246 245 246 245 244 243 240 235 232 230 229 233 237 236 234 233 229 226 224 221 220 217 211 208 207 196 178 174 184 193 197 202 210 222 233 243 252 260 265 267 270 272 275 279 282
230 230 231 232 233 233 234 235 234 236 237 239 241 242 243 244 244 245 245 246 247 247 248 247 247 246 246 247 248 248 250 250 248 248 248 248 247 247 247 246 243 241 242 244 244 244 242 237 234 231 232 235 234 231 230 227 224 222 221 219 218 216 210 203 203 202 191 181 181 190 199 204 210 222 233 240 248 256 262 265 266 267 270 274 279
228 228 229 230 231 231 231 232 232 235 237 238 240 241 242 243 243 244 244 245 247 247 248 248 248 248 249 249 249 250 253 252 250 250 250 249 248 246 245 244 242 242 248 252 251 249 248 247 245 241 239 237 230 227 227 224 222 222 220 218 216 212 206 201 198 198 196 189 184 187 195 202 209 217 228 237 244 251 259 262 263 264 266 270 274
227 226 226 228 229 230 230 231 232 234 236 238 240 240 241 242 242 243 244 245 246 247 248 249 249 250 250 250 251 252 254 253 251 249 249 250 250 247 244 244 246 248 251 254 255 254 254 253 250 244 241 237 230 226 227 225 223 223 221 218 213 207 203 199 196 194 191 186 184 187 193 200 207 215 226 235 242 248 253 256 259 261 262 266 270
226 226 225 227 228 229 230 231 232 234 235 237 238 238 239 241 243 244 245 246 246 247 248 250 251 252 252 252 251 250 249 248 248 249 250 250 251 248 245 245 248 251 254 257 260 260 257 255 251 246 241 237 233 232 233 231 226 223 221 217 211 206 203 199 196 193 188 184 185 189 191 196 204 212 221 228 235 245 250 250 254 258 257 261 268
226 226 226 228 230 231 231 231 231 231 232 232 232 232 233 235 237 238 240 241 242 245 247 248 248 249 250 250 248 246 245 245 244 246 248 249 248 245 242 245 250 255 258 260 261 261 260 258 254 248 242 237 236 238 239 239 235 228 221 214 208 206 205 200 195 190 186 185 186 188 188 195 203 208 216 225 233 243 248 245 248 253 254 257 263
222 223 225 229 231 231 231 230 227 226 225 224 224 226 225 225 225 226 227 229 232 236 240 241 242 241 242 243 243 243 246 248 247 247 249 250 247 243 244 250 255 259 259 260 261 261 259 256 251 246 241 238 238 239 240 242 240 236 228 219 212 208 204 200 198 196 193 191 190 188 188 197 208 212 220 230 237 241 241 238 242 248 252 258 264
218 221 224 227 228 227 225 223 221 221 221 222 224 226 227 226 226 226 227 228 228 229 232 236 240 240 238 239 241 244 248 252 253 254 253 252 249 249 255 260 262 262 261 261 261 259 253 249 245 240 237 237 237 239 243 243 239 234 229 223 218 215 211 206 203 202 200 199 197 195 195 202 212 218 224 231 236 238 237 237 240 242 243 250 259
216 219 221 222 222 219 217 215 215 217 220 224 228 232 234 235 234 234 235 237 237 236 237 239 242 244 245 247 249 252 254 252 252 253 254 254 255 258 261 264 264 262 261 260 258 254 248 245 242 239 238 239 240 241 243 242 237 229 225 222 220 219 220 220 217 212 209 205 201 200 204 209 215 221 226 230 233 234 234 236 239 239 238 241 244
216 218 219 219 217 213 210 210 212 217 223 229 233 234 235 236 236 236 235 237 238 238 239 240 240 242 243 245 248 251 253 252 252 257 259 260 261 261 261 262 263 262 260 258 255 251 246 242 240 241 244 244 243 242 240 237 232 227 223 222 222 222 223 225 227 227 223 216 209 209 213 215 219 225 231 232 230 227 226 231 235 236 235 241 246
215 218 218 217 215 211 209 211 214 220 226 235 240 238 232 230 229 229 230 230 232 233 235 238 238 240 242 243 247 250 253 254 256 259 261 260 260 259 258 259 262 261 258 256 253 251 247 244 244 247 248 244 240 238 236 233 230 226 223 222 224 225 225 226 227 229 230 227 223 224 224 223 226 232 234 233 232 229 229 232 236 236 238 246 255
215 216 216 216 214 212 213 214 218 224 229 236 240 233 226 224 223 222 221 221 223 224 226 228 231 235 238 240 242 244 244 243 243 245 246 246 248 251 255 257 257 255 253 253 253 252 251 249 251 252 251 247 243 241 239 235 230 228 226 225 226 228 229 229 228 229 231 233 234 235 235 233 233 235 236 236 235 234 236 239 241 241 244 250 258
213 213 213 214 213 213 215 217 220 223 223 220 215 211 212 216 217 217 216 215 216 220 222 227 232 235 238 239 238 239 241 240 239 241 243 242 242 245 250 254 252 250 252 254 254 253 252 251 252 254 254 253 251 249 245 238 231 229 229 229 229 231 231 230 230 232 233 235 236 237 240 241 239 238 239 239 236 232 230 230 232 232 235 245 256
213 212 211 211 211 211 214 215 214 212 208 203 202 203 203 205 207 209 212 214 218 223 226 230 235 239 242 244 243 243 245 247 247 248 250 250 248 247 246 248 249 249 251 253 254 252 252 252 252 254 256 257 256 252 247 239 232 230 231 230 230 232 232 231 231 233 234 235 237 239 241 243 243 242 242 240 238 233 224 221 225 227 226 236 252
214 212 211 211 210 209 211 211 207 202 199 197 197 199 200 201 202 200 201 205 209 212 214 218 224 229 233 235 236 237 238 239 240 241 244 244 243 243 242 240 241 244 246 248 251 252 253 253 254 255 257 259 258 255 249 240 233 230 230 229 229 231 233 232 232 233 234 234 237 238 239 241 243 244 245 242 239 236 229 228 231 227 223 228 240
215 213 212 211 209 209 210 208 203 199 196 193 193 195 195 198 203 203 202 204 207 208 211 216 221 223 225 227 228 230 232 233 233 232 231 231 229 227 228 230 234 240 244 246 249 252 254 256 257 258 259 259 258 256 251 244 237 233 231 228 228 232 236 235 233 234 234 235 236 237 238 240 240 242 243 242 240 238 235 236 236 231 228 230 233
215 212 211 208 207 207 207 205 202 199 196 191 189 190 192 195 200 201 200 202 206 208 209 213 215 214 214 214 215 218 221 221 220 219 217 219 221 219 220 226 230 234 238 241 245 250 254 258 262 263 264 264 262 259 254 248 242 236 232 229 230 235 240 239 238 238 238 238 239 239 239 239 238 239 239 238 239 239 237 236 238 237 234 233 231
211 208 205 204 204 204 204 204 202 199 196 191 189 190 192 194 196 197 198 199 201 201 202 204 203 201 199 198 197 200 201 198 198 199 198 202 210 217 221 225 230 233 234 238 244 252 258 264 269 271 272 272 269 263 257 251 246 240 237 235 236 240 243 245 247 248 246 244 243 242 240 238 236 236 237 237 238 239 238 237 240 242 242 239 235
206 202 200 200 201 201 201 202 201 198 195 194 193 193 192 194 196 198 199 200 199 197 197 197 195 191 188 187 186 187 187 185 183 183 186 192 200 211 220 225 229 232 233 236 244 254 264 271 276 278 278 276 272 266 259 253 249 245 243 242 242 242 246 251 256 257 252 247 243 241 240 238 237 236 237 237 237 236 235 239 244 249 251 250 246
201 197 197 198 198 198 199 198 197 197 197 197 197 195 193 193 195 197 197 195 193 191 191 190 187 182 179 178 178 177 176 174 173 173 177 184 191 201 214 223 228 233 237 243 252 262 270 277 283 286 285 280 275 269 262 255 250 250 250 248 246 246 249 254 258 259 256 249 243 240 240 240 240 238 239 240 239 238 239 242 248 250 251 254 255
194 193 195 195 196 196 196 195 196 198 198 199 198 196 192 191 191 193 192 189 185 182 182 183 179 172 169 168 166 164 160 158 164 170 173 180 188 197 208 219 228 236 242 248 257 266 273 281 287 291 290 286 279 272 264 258 254 254 255 253 250 249 250 252 255 256 255 249 245 243 244 244 244 245 247 249 248 247 246 247 248 249 250 254 257
188 191 192 192 194 193 192 194 197 198 198 198 197 193 188 186 186 186 185 182 179 176 175 176 175 169 164 162 158 155 154 156 159 165 172 180 186 190 198 210 220 230 239 249 258 268 276 283 287 289 290 287 281 272 266 262 259 258 258 256 253 251 250 252 252 251 250 249 248 248 251 252 253 255 257 257 255 252 249 246 246 247 249 252 254
186 187 188 190 191 189 189 191 194 196 196 196 197 194 188 184 181 181 179 177 174 172 169 168 168 165 162 161 160 158 158 159 159 163 167 173 178 182 187 195 204 215 228 241 252 261 269 275 280 283 285 285 280 272 268 267 264 259 256 253 252 253 253 252 250 249 250 252 253 256 260 262 263 264 262 260 258 255 253 250 249 249 250 249 249
183 183 185 186 186 187 186 186 187 188 188 189 192 192 189 186 182 179 178 173 167 166 166 166 167 167 166 166 166 166 167 165 164 167 171 172 175 179 183 189 197 207 218 231 244 253 261 266 271 274 275 276 275 271 269 266 262 258 253 250 252 255 257 257 256 255 257 259 261 264 267 268 267 266 265 263 262 261 260 258 257 257 255 250 245
181 182 182 182 183 185 185 183 181 179 179 181 184 185 184 183 181 181 182 181 175 172 172 174 177 179 180 178 174 171 172 172 172 176 180 182 185 188 189 194 200 205 214 227 238 245 252 257 259 263 267 269 271 269 267 266 264 261 257 253 253 256 259 260 260 260 262 263 265 267 269 269 268 268 268 267 266 266 265 262 259 259 257 249 242
179 179 179 179 180 180 180 180 176 171 169 172 175 178 181 182 181 181 184 186 185 183 183 187 189 188 187 187 186 183 181 180 182 184 183 183 185 185 185 188 191 197 211 227 235 239 246 251 255 261 265 270 274 275 274 274 272 270 267 264 260 258 257 257 259 261 264 265 266 267 268 269 270 270 269 268 267 267 266 262 260 259 254 246 243
174 175 175 176 177 175 174 174 171 168 166 164 162 162 168 176 179 180 178 177 178 180 183 186 186 185 185 184 186 188 187 183 181 179 176 173 170 166 167 172 175 183 200 216 226 232 237 242 250 260 266 271 276 279 283 284 282 281 280 275 270 265 262 260 261 265 266 266 268 270 270 269 270 270 268 268 268 267 265 263 261 257 250 244 245
170 172 175 175 174 173 171 168 167 166 165 164 161 151 143 142 150 159 162 163 167 173 176 176 176 179 183 182 178 178 177 173 168 165 163 161 158 156 158 161 164 173 186 198 208 219 229 239 250 259 267 275 281 285 288 288 288 288 287 283 280 276 272 270 271 271 268 267 268 269 270 269 270 270 269 269 269 268 266 264 260 255 250 247 247
171 172 174 173 173 172 169 166 166 165 163 164 163 155 142 131 125 131 145 154 161 166 168 169 170 172 175 175 172 169 167 165 164 163 160 156 153 152 152 152 155 162 170 179 190 203 218 236 252 263 273 283 290 294 295 293 293 292 289 285 285 285 283 284 285 281 275 273 272 271 271 271 271 271 271 271 270 269 267 263 260 256 253 250 250
175 173 172 171 171 171 169 167 167 166 165 165 163 159 153 144 134 130 134 142 151 156 158 161 165 165 165 167 169 170 169 169 169 168 166 162 157 155 153 152 154 160 167 174 180 188 207 237 261 274 285 296 304 306 304 302 301 299 293 290 291 294 296 296 292 286 283 281 279 276 275 275 274 273 273 271 269 268 266 264 261 258 255 252 253
178 176 174 172 171 170 170 170 169 169 169 168 165 162 161 158 152 144 139 139 141 145 150 156 161 165 166 168 174 177 177 177 178 178 177 172 166 162 160 155 153 161 175 182 182 184 205 237 259 275 288 297 304 307 306 305 303 300 297 296 296 299 300 298 292 289 290 288 284 281 281 280 277 275 274 272 270 268 265 264 262 258 254 254 256
180 178 177 176 173 171 171 171 171 170 170 169 168 166 164 162 160 155 151 148 142 137 138 143 148 155 158 156 160 169 173 176 180 182 182 179 174 171 168 161 158 166 180 192 200 207 225 243 255 269 282 291 298 302 302 303 303 302 301 301 301 301 300 297 293 292 292 290 287 286 285 283 281 279 276 273 270 267 265 265 264 260 257 258 259
180 178 177 178 177 174 173 173 173 173 172 170 169 167 164 162 160 157 154 151 143 137 135 136 138 145 149 145 143 149 156 162 168 171 173 175 177 178 174 167 164 168 175 186 201 213 230 248 258 270 284 293 300 303 304 304 306 306 306 305 305 303 300 297 296 295 293 290 288 287 285 283 282 280 277 273 269 267 268 267 266 264 262 261 260
180 178 177 178 177 174 172 173 173 173 171 168 165 162 160 159 157 154 151 148 143 139 138 138 140 142 143 143 145 148 152 158 161 161 162 165 170 171 168 163 161 161 164 172 188 200 214 237 255 268 280 288 294 299 302 304 305 305 306 305 303 301 299 297 296 295 292 288 287 285 283 282 281 279 275 271 269 269 268 268 267 267 265 263 262
179 178 176 174 172 169 166 165 166 166 164 161 159 157 154 153 153 152 149 147 146 144 141 142 145 145 144 147 151 153 154 156 154 151 149 149 150 150 149 151 153 155 161 175 192 203 213 228 247 260 274 285 292 296 300 302 304 304 304 303 300 298 298 297 295 294 292 289 287 286 284 282 281 279 275 271 269 269 269 268 267 266 266 264 261
173 173 171 168 165 163 160 158 157 157 154 153 154 153 152 151 151 151 150 148 148 148 146 147 149 149 149 153 158 161 161 155 148 143 138 135 137 138 141 146 149 150 160 177 195 210 216 225 240 250 259 269 275 282 286 288 291 293 293 294 294 294 294 295 294 293 293 290 289 289 287 284 284 282 278 273 270 269 269 269 266 264 264 263 261
161 160 161 161 159 157 156 154 153 152 151 150 151 152 152 152 152 152 152 150 150 150 151 151 150 150 153 155 159 167 166 154 144 141 138 135 139 143 147 156 161 164 179 198 215 234 240 243 252 259 263 267 272 277 280 282 285 287 286 287 289 289 290 291 291 291 292 291 291 290 289 287 287 285 280 275 273 272 270 270 269 266 264 264 264
152 150 152 154 153 152 151 149 149 149 149 150 151 151 151 152 153 154 153 152 151 151 151 150 147 147 151 152 153 162 164 153 144 144 143 142 147 153 159 171 181 190 212 227 238 249 254 258 264 269 272 276 279 283 285 286 288 290 289 289 290 289 290 291 290 290 290 290 289 289 288 288 288 284 280 277 277 275 272 270 270 269 267 266 266
149 147 146 148 149 148 145 143 145 146 147 147 149 150 151 152 153 154 153 152 152 151 149 147 145 145 149 149 148 153 156 150 144 144 145 146 154 163 173 189 204 219 235 245 250 255 258 261 267 272 276 281 284 287 290 291 291 291 292 293 293 292 292 292 291 291 291 290 290 289 288 288 286 284 282 280 279 277 274 272 271 270 268 268 266
148 145 144 145 145 145 143 142 142 142 142 142 143 145 147 149 150 152 152 151 152 152 149 147 148 149 150 150 151 152 149 144 140 142 145 149 162 177 191 213 231 239 247 253 257 261 264 267 271 276 281 287 291 292 293 294 294 294 295 295 294 294 294 294 293 293 292 291 292 291 290 289 287 285 284 284 282 279 276 274 272 270 269 268 266
145 142 141 141 140 138 138 138 138 137 137 138 139 141 145 147 148 150 151 150 151 153 151 150 154 157 154 153 157 157 149 142 141 145 153 166 190 214 227 238 246 249 252 257 260 265 271 274 277 281 285 288 291 292 292 294 294 295 297 297 295 295 296 296 296 295 293 290 290 289 289 289 288 286 285 284 282 280 277 274 272 271 269 267 266
142 139 137 135 133 132 132 134 135 135 136 137 138 139 143 146 147 148 150 151 151 154 154 154 158 161 158 155 157 155 149 146 151 164 197 220 239 247 250 253 255 255 257 261 264 269 275 278 281 286 288 288 289 291 292 294 295 296 297 297 297 297 299 298 297 296 294 291 290 288 287 286 286 285 284 283 282 279 277 275 273 272 269 267 265
138 136 135 133 132 131 132 134 136 137 137 139 139 139 141 144 145 146 149 151 152 154 155 154 157 159 156 155 159 160 165 196 222 244 255 256 258 259 258 259 260 261 264 268 272 275 279 283 286 290 292 292 292 293 294 296 297 297 297 297 296 297 298 299 297 295 293 290 289 288 287 287 286 284 283 283 282 279 277 275 273 271 269 268 266
136 135 135 134 133 132 133 135 136 137 138 139 140 140 140 142 143 145 147 149 150 153 154 153 157 165 171 194 236 254 267 270 267 266 265 263 261 262 262 263 265 267 270 272 275 277 281 285 287 290 292 293 293 293 294 295 295 296 296 295 295 297 299 299 297 295 293 290 287 287 287 287 287 285 284 283 282 280 277 276 274 272 270 270 268
135 134 133 134 134 133 134 136 136 137 138 139 139 140 140 141 143 144 146 148 151 155 162 172 198 232 253 265 271 271 272 271 268 267 266 264 263 264 265 266 268 270 271 271 273 276 279 282 282 283 284 286 288 290 291 291 291 293 293 293 295 298 298 297 296 296 296 293 290 288 287 287 286 286 284 282 280 279 277 275 274 273 272 271 269
131 131 131 132 132 133 134 136 136 137 138 138 138 139 139 140 142 144 148 157 171 193 224 244 254 262 265 267 269 270 269 269 268 267 265 265 264 264 264 265 267 269 270 270 270 271 272 273 273 275 278 282 284 287 289 290 290 291 293 294 296 296 296 298 300 301 300 296 291 288 288 287 286 286 285 282 280 279 277 275 275 274 272 270 268
127 128 128 129 130 131 133 135 134 134 136 136 137 138 139 143 151 162 180 209 231 247 255 257 261 265 267 267 268 268 267 267 266 264 263 262 261 260 261 263 264 265 267 268 268 267 267 267 269 272 277 280 282 285 288 289 291 293 295 296 298 299 300 302 304 302 300 296 291 287 287 287 286 284 283 281 280 280 278 277 276 274 270 267 265
125 126 126 127 128 129 131 131 130 131 134 136 137 142 149 161 185 212 234 246 251 256 259 261 263 265 265 266 266 266 265 265 264 262 261 260 258 258 260 261 262 262 264 265 266 265 265 267 270 274 278 280 282 284 287 289 292 295 298 300 303 305 305 304 304 303 301 298 293 288 285 284 283 283 282 281 282 282 281 279 278 274 269 266 263